Quick links : Home Page : Contact Us : Index : Site Map : Search Site : Ephemerides


(78043) 2002 JU113

Orbital Elements

The following orbital elements are taken from MPO 55471
 (78043) 2002 JU113
Epoch 2007 Oct. 27.0 TT = JDT 2454400.5                 MPC
M 111.71166              (2000.0)            P               Q
n   0.27088394     Peri.   53.00671     +0.43270881     +0.87676484
a   2.3656321      Node   243.90205     -0.88346626     +0.36601447
e   0.0982610      Incl.   13.51500     -0.17958413     +0.31195645
P   3.64           H   16.0           G   0.15           U   1
From 66 observations at 4 oppositions, 1996-2003, mean residual 0".50.
An explanation of the orbital elements is available.

These orbital elements are also available in forms suitable for loading into a number of popular planetarium-type software programs.


Ephemeris

The following ephemeris is at intervals of five days. A daily ephemeris covering the same time interval is also available.

Personalized ephemerides for this (and other) objects may be generated using the Minor Planet & Comet Ephemeris Service.

Date    TT    R. A. (2000) Decl.     Delta      r     Elong.  Phase     V
2008 08 22    08 52.73   +08 21.1    3.535    2.593    18.1     7.0    21.3
 
2008 12 20    11 30.87   -12 50.6    2.344    2.540    89.8    22.8    21.0
2008 12 25    11 34.44   -13 41.2    2.276    2.536    93.6    22.8    20.9
2008 12 30    11 37.55   -14 30.1    2.209    2.533    97.5    22.6    20.8
2009 01 04    11 40.18   -15 16.7    2.142    2.529   101.5    22.4    20.7
2009 01 09    11 42.27   -16 00.8    2.077    2.525   105.6    22.0    20.7
2009 01 14    11 43.80   -16 41.9    2.013    2.521   109.8    21.5    20.6
2009 01 19    11 44.72   -17 19.6    1.950    2.518   114.1    20.9    20.5
2009 01 24    11 45.01   -17 53.2    1.890    2.514   118.5    20.1    20.4
2009 01 29    11 44.63   -18 22.3    1.833    2.510   123.0    19.2    20.3
2009 02 03    11 43.57   -18 46.2    1.779    2.505   127.6    18.1    20.2
2009 02 08    11 41.84   -19 04.2    1.728    2.501   132.3    16.9    20.1
2009 02 13    11 39.45   -19 15.8    1.682    2.497   137.1    15.6    20.0
2009 02 18    11 36.44   -19 20.5    1.640    2.493   141.8    14.2    19.9
2009 02 23    11 32.88   -19 17.6    1.603    2.488   146.4    12.7    19.8
2009 02 28    11 28.85   -19 06.9    1.572    2.484   150.7    11.3    19.7
2009 03 05    11 24.48   -18 48.5    1.547    2.479   154.5     9.9    19.6
2009 03 10    11 19.89   -18 22.4    1.528    2.475   157.4     8.9    19.5
2009 03 15    11 15.25   -17 49.4    1.515    2.470   159.1     8.3    19.4
2009 03 20    11 10.69   -17 10.0    1.509    2.465   159.1     8.3    19.4
2009 03 25    11 06.37   -16 25.5    1.510    2.460   157.4     8.9    19.5
2009 03 30    11 02.43   -15 37.1    1.516    2.456   154.5    10.1    19.5
2009 04 04    10 59.00   -14 46.2    1.529    2.451   150.7    11.5    19.6
2009 04 09    10 56.16   -13 54.2    1.548    2.446   146.4    13.1    19.7
2009 04 14    10 53.98   -13 02.5    1.572    2.441   141.8    14.7    19.7
2009 04 19    10 52.50   -12 12.3    1.602    2.436   137.2    16.3    19.8
2009 04 24    10 51.74   -11 24.4    1.635    2.431   132.5    17.8    19.9
2009 04 29    10 51.72   -10 39.9    1.673    2.425   127.9    19.1    20.0
2009 05 04    10 52.42   -09 59.3    1.715    2.420   123.3    20.4    20.1
2009 05 09    10 53.81   -09 23.1    1.759    2.415   118.9    21.5    20.2
2009 05 14    10 55.85   -08 51.5    1.806    2.410   114.7    22.4    20.3
2009 05 19    10 58.51   -08 24.7    1.855    2.404   110.5    23.2    20.3
2009 05 24    11 01.74   -08 02.7    1.906    2.399   106.5    23.9    20.4
2009 05 29    11 05.52   -07 45.4    1.959    2.394   102.6    24.4    20.5
2009 06 03    11 09.79   -07 32.9    2.012    2.388    98.8    24.8    20.6
2009 06 08    11 14.52   -07 24.8    2.066    2.383    95.2    25.1    20.6
2009 06 13    11 19.67   -07 20.9    2.121    2.377    91.6    25.3    20.7
2009 06 18    11 25.20   -07 21.2    2.175    2.372    88.2    25.4    20.7
2009 06 23    11 31.09   -07 25.3    2.230    2.366    84.9    25.3    20.8
2009 06 28    11 37.31   -07 33.0    2.284    2.361    81.6    25.2    20.8
2009 07 03    11 43.83   -07 44.0    2.338    2.355    78.4    25.0    20.9
2009 07 08    11 50.62   -07 58.2    2.391    2.350    75.3    24.7    20.9
2009 07 13    11 57.67   -08 15.2    2.443    2.344    72.3    24.4    20.9
2009 07 18    12 04.96   -08 34.8    2.495    2.339    69.4    24.0    21.0
2009 07 23    12 12.48   -08 56.9    2.545    2.333    66.5    23.5    21.0
2009 07 28    12 20.21   -09 21.1    2.594    2.328    63.6    23.0    21.0
2009 08 02    12 28.13   -09 47.3    2.642    2.322    60.8    22.4    21.0
2009 08 07    12 36.25   -10 15.1    2.688    2.317    58.0    21.8    21.0
2009 08 12    12 44.54   -10 44.5    2.732    2.311    55.3    21.1    21.0
2009 08 17    12 53.00   -11 15.1    2.775    2.306    52.6    20.4    21.0
2009 08 22    13 01.64   -11 46.8    2.816    2.300    50.0    19.7    21.0
2009 08 27    13 10.43   -12 19.4    2.856    2.295    47.3    18.9    21.0
2009 09 01    13 19.38   -12 52.6    2.893    2.289    44.7    18.1    21.0
2009 09 06    13 28.49   -13 26.3    2.929    2.284    42.2    17.2    21.0
2009 09 11    13 37.74   -14 00.3    2.962    2.279    39.6    16.4    21.0
2009 09 16    13 47.14   -14 34.3    2.994    2.273    37.1    15.5    21.0
2009 09 21    13 56.69   -15 08.1    3.023    2.268    34.5    14.5    21.0
2009 09 26    14 06.38   -15 41.6    3.050    2.263    32.0    13.6    21.0

Back to Observable Critical-List Minor Planets

MPC

Valid HTML 4.01!